Wind_Speed
23 21 18 14 9 13 21 23 22 20 11 8 4 1 8 9 10 5 10 10 3 1 3 4 3 5 6 10 14 16 17 16 14 13 12 12 13 14 16 16 15 15 14 15 15 16 15 15 16
24 23 19 14 19 22 25 20 21 19 8 10 2 5 7 1 8 3 9 8 5 4 5 5 5 5 6 8 10 13 15 15 14 12 11 11 13 14 16 16 14 13 13 14 14 13 12 12 14
24 23 16 15 25 30 26 20 20 14 7 3 5 5 8 2 5 12 9 10 5 5 7 7 8 7 6 8 10 10 12 13 12 11 10 11 12 14 16 16 14 13 12 12 12 11 10 10 11
20 22 18 24 28 26 28 28 21 20 10 8 7 7 9 19 6 12 11 14 10 6 9 10 10 9 9 9 11 12 12 12 12 11 10 10 11 13 15 14 13 12 12 11 10 10 9 8 8
20 14 20 23 30 30 27 25 23 16 15 6 6 8 11 17 20 17 17 18 14 11 9 11 12 12 10 11 12 13 14 14 13 12 12 11 12 14 15 14 13 12 11 11 10 9 8 7 6
18 19 23 29 30 28 30 31 25 15 13 13 12 10 14 12 15 15 18 17 15 15 14 14 15 15 13 14 15 15 15 15 15 14 13 13 13 14 16 16 14 12 12 12 11 10 9 8 7
24 22 29 29 29 27 27 26 28 24 24 19 15 13 9 8 12 17 19 17 16 18 17 16 17 17 16 17 17 16 16 17 17 16 16 15 16 16 17 17 16 14 13 12 12 11 10 9 8
23 24 30 31 30 31 25 22 28 27 25 20 18 17 15 12 22 24 20 13 15 19 19 19 21 21 20 20 20 19 17 17 18 18 17 15 14 14 15 17 17 16 14 13 12 12 12 12 11
21 28 36 33 30 27 22 23 19 18 18 21 22 22 15 16 20 28 21 19 14 21 24 22 22 23 24 23 22 21 20 18 17 16 17 16 15 15 15 16 18 17 17 16 15 14 13 14 14
29 33 37 26 26 27 24 24 26 17 18 19 23 23 19 15 15 18 23 16 23 25 30 28 26 27 27 27 24 23 22 20 18 16 16 16 17 16 16 16 18 19 19 19 18 17 16 16 17
28 41 25 25 27 26 26 20 17 18 22 21 22 24 21 22 19 15 5 10 22 28 31 34 29 31 31 31 27 25 23 21 20 20 19 19 19 18 18 17 18 19 19 20 20 19 19 19 19
30 32 29 28 25 20 25 24 19 18 21 22 18 19 19 20 18 18 17 23 24 37 34 35 46 34 34 33 29 26 24 23 22 22 22 22 22 22 21 21 20 20 20 20 20 19 21 22 22
30 29 27 25 27 25 21 26 25 26 22 23 26 24 23 20 20 26 27 30 41 37 39 43 31 35 32 31 29 28 27 26 25 24 24 24 24 21 21 19 18 19 20 20 20 20 21 22 20
25 28 28 29 27 25 28 26 25 27 23 24 25 29 26 24 27 27 27 27 37 46 53 45 9 33 24 27 27 23 23 23 23 25 24 24 21 19 18 16 15 15 14 15 12 14 15 16 18
27 27 30 31 31 28 24 31 33 26 25 27 29 30 36 28 25 26 19 28 33 35 49 51 47 25 22 25 23 19 19 19 22 20 23 21 17 16 17 16 16 18 18 16 12 12 14 15 17
24 29 33 29 24 29 27 37 25 23 26 31 30 29 31 37 30 30 16 24 30 32 33 26 34 22 33 27 24 26 27 28 22 29 24 23 18 18 15 14 15 18 16 13 16 13 16 18 23
26 30 31 28 27 28 28 31 22 22 21 22 25 30 32 30 31 28 20 31 35 30 23 23 23 15 29 31 33 35 25 25 28 25 33 37 17 20 22 16 19 19 14 14 12 18 16 21 24
29 27 27 29 22 25 28 24 21 18 18 18 20 22 28 34 32 28 25 31 29 23 16 8 14 22 28 13 35 17 13 20 18 29 37 48 34 24 30 21 26 14 23 16 6 17 24 23 26
27 26 26 25 23 24 22 21 21 21 21 20 20 20 23 30 28 30 33 24 25 20 21 12 9 9 16 9 4 6 14 12 19 16 13 31 17 14 18 21 33 21 22 21 23 18 20 23 27
29 30 30 24 25 20 18 19 20 20 21 20 19 20 20 24 27 31 34 34 23 16 17 20 18 18 22 13 7 9 9 17 19 23 20 18 16 15 14 18 21 18 16 17 21 24 26 28 31
32 31 24 17 16 17 15 20 22 23 21 19 17 16 19 22 23 32 36 36 29 28 19 17 23 20 18 25 32 31 13 13 19 22 26 24 29 28 28 21 18 20 19 23 27 30 32 34 34
32 27 24 19 18 23 24 21 28 28 21 19 16 12 12 14 20 31 32 34 38 39 38 33 35 27 21 23 24 23 27 31 30 17 22 25 22 23 27 27 26 27 28 30 31 33 35 37 39
30 24 25 22 20 20 22 16 22 11 20 18 16 12 13 17 18 26 26 36 36 32 34 23 27 29 34 29 22 31 20 19 25 22 24 23 22 24 29 29 31 32 33 34 35 36 37 39 42
23 22 23 22 24 20 26 24 27 11 23 19 20 17 14 16 17 15 21 29 29 26 31 34 31 33 45 32 17 9 13 18 21 22 28 28 32 33 34 33 33 33 33 35 36 37 40 42 44
27 26 12 15 16 14 24 27 25 15 10 4 17 17 17 19 15 19 29 27 28 27 25 24 20 16 20 22 26 24 22 25 29 32 33 33 33 35 38 37 37 38 39 40 43 45 47 48 50
34 30 20 17 14 16 26 28 25 18 21 9 12 16 21 17 13 23 22 25 29 30 28 27 28 27 25 27 31 33 33 32 35 36 35 32 32 34 36 36 36 40 43 45 48 50 52 53 55
31 36 31 25 17 6 10 12 20 12 18 13 14 19 18 18 20 23 27 27 26 27 29 29 29 29 30 32 33 35 31 30 31 31 32 33 33 33 35 38 42 44 47 50 53 56 57 59 60
36 32 30 30 16 11 16 20 12 20 19 16 17 18 20 22 19 19 20 22 23 20 21 23 22 22 20 20 22 26 27 28 30 31 30 32 35 37 40 43 47 51 53 55 58 60 61 62 62
30 29 27 24 26 6 6 8 2 13 6 8 19 20 22 24 24 19 20 22 22 23 21 16 13 14 17 19 21 23 24 27 29 32 33 36 39 42 45 48 51 54 57 60 62 63 63 63 60
34 34 32 16 18 26 9 5 14 10 19 12 15 24 24 26 24 22 22 17 16 14 14 13 13 14 17 19 21 23 26 28 31 34 36 40 43 47 50 52 52 54 58 62 61 62 61 58 54
Wind_Direction
247 249 253 260 256 240 250 250 249 264 267 242 231 71 310 312 305 140 160 206 215 164 256 229 190 158 163 156 152 147 141 136 133 128 124 127 133 136 136 135 134 136 133 125 119 114 112 111 106
241 242 241 239 245 247 249 244 250 260 228 242 292 295 288 193 33 191 210 257 114 176 221 234 201 173 161 163 156 148 144 138 135 132 129 131 137 140 144 143 140 143 139 133 127 123 120 117 110
238 235 229 239 239 240 248 241 242 260 212 224 232 247 246 91 193 166 212 230 187 204 216 224 201 186 166 162 156 152 145 139 135 132 132 136 143 147 152 150 148 151 151 143 139 137 134 128 120
229 225 227 231 238 237 240 250 265 248 260 265 236 230 243 236 230 236 236 233 224 221 219 218 207 193 174 169 164 159 150 140 136 136 139 143 148 155 159 157 156 162 164 159 156 156 154 146 136
218 204 226 237 240 241 241 251 254 260 242 229 224 242 255 236 248 256 247 240 231 229 225 215 214 203 191 184 179 173 161 155 151 151 151 152 156 163 169 171 170 173 176 176 175 177 176 174 168
217 213 232 236 243 243 244 244 256 254 238 237 249 251 264 231 247 252 237 228 224 224 222 221 218 211 206 202 197 188 177 169 165 163 161 162 164 169 177 182 182 184 189 192 195 197 198 200 202
213 220 232 240 246 246 244 247 254 250 239 245 241 250 254 275 252 258 242 217 213 214 215 224 224 221 219 211 208 206 197 183 177 174 176 174 174 177 182 188 192 196 200 203 208 213 216 220 226
219 227 240 240 243 249 249 247 240 241 230 233 239 247 240 227 222 158 170 206 215 215 204 220 227 231 224 215 210 209 210 204 192 186 183 183 183 184 189 194 198 205 211 215 217 220 225 230 234
222 232 240 237 239 246 248 255 245 216 229 234 234 242 230 263 240 230 261 160 227 243 221 223 227 226 220 215 213 210 209 213 208 200 191 190 192 194 195 200 206 212 219 223 226 229 231 234 239
215 229 233 237 243 248 252 249 248 240 242 241 237 225 226 264 280 273 300 201 223 240 250 235 233 226 218 213 208 206 205 206 207 208 209 202 200 201 204 206 210 217 223 229 233 237 239 242 243
222 230 238 243 244 249 254 254 253 240 238 229 239 233 238 253 247 264 257 226 222 235 248 253 230 221 218 217 210 209 209 207 205 205 206 210 209 209 211 208 217 220 227 233 238 242 247 249 252
228 235 239 243 241 252 254 244 242 235 235 231 236 235 231 221 214 226 228 241 228 228 233 237 242 215 215 217 212 210 210 211 210 211 211 212 215 216 217 213 217 222 229 238 243 248 253 257 257
230 235 241 243 249 248 254 243 249 247 242 239 237 224 222 248 229 208 223 227 239 228 232 193 225 227 210 214 212 214 211 212 214 216 217 218 216 217 221 225 227 227 234 238 245 254 260 264 263
234 241 241 243 243 250 244 246 246 244 240 238 236 236 225 232 244 231 224 243 242 238 240 261 162 213 212 206 221 213 213 207 216 219 217 220 220 221 223 226 226 237 241 239 251 262 257 260 265
238 244 243 240 238 240 247 249 243 247 242 244 238 237 221 222 229 233 236 252 260 256 252 257 262 106 189 210 216 215 203 220 224 226 233 212 213 223 223 224 227 232 234 240 249 252 260 263 267
239 238 242 238 241 237 234 249 249 251 248 242 238 240 241 231 229 227 216 254 254 263 259 257 268 301 194 199 225 221 211 202 216 217 214 229 220 232 239 252 251 248 241 251 249 253 256 263 273
227 233 236 245 238 235 228 246 249 245 240 244 242 239 237 247 238 235 202 245 251 264 264 253 261 263 231 227 216 215 220 223 229 220 210 255 243 238 228 220 243 248 247 239 246 242 265 280 290
218 228 237 239 242 230 226 238 239 235 236 242 241 242 240 235 237 227 210 241 249 265 268 281 244 251 251 248 237 269 222 241 271 243 236 245 254 234 268 243 249 231 235 206 317 289 288 285 286
230 232 229 241 230 211 218 239 242 242 243 244 245 242 239 234 240 214 218 238 242 242 236 228 253 230 239 263 251 197 228 260 275 297 296 260 293 313 305 291 290 300 283 296 286 280 275 281 288
230 240 241 234 213 216 223 238 249 246 241 242 241 238 241 236 231 213 220 218 223 218 219 222 221 224 233 248 252 275 261 274 275 288 296 299 306 299 289 287 302 306 287 275 274 280 283 286 290
228 233 238 248 199 219 235 253 250 242 239 235 237 236 236 230 227 210 217 216 215 227 229 226 232 223 222 234 248 245 265 276 285 286 285 276 261 269 287 288 280 278 282 285 286 288 290 291 291
225 223 230 225 231 234 217 243 247 235 224 217 223 230 212 207 215 204 213 225 228 242 252 254 252 244 249 248 244 250 253 266 273 283 291 273 271 273 264 264 267 273 281 288 290 292 293 293 297
226 218 221 227 237 242 250 263 272 177 210 203 210 211 202 202 192 201 213 223 232 251 255 241 234 248 246 251 253 258 242 255 265 273 270 273 271 268 272 273 276 282 285 287 289 291 292 293 294
213 220 214 219 226 231 235 247 258 252 203 209 198 197 199 193 197 204 218 209 225 224 235 244 250 249 247 255 248 238 245 233 244 265 275 273 271 273 274 274 280 287 289 292 293 292 292 292 293
209 212 203 216 226 235 230 236 246 199 193 243 182 184 187 185 194 208 198 205 219 233 247 248 249 245 229 244 255 256 251 247 252 262 267 271 274 274 278 283 284 286 288 289 290 290 292 294 294
204 204 218 204 213 224 225 229 244 220 201 195 176 179 183 185 187 184 180 207 230 246 246 243 245 250 249 244 251 249 262 254 257 260 264 266 266 269 274 278 281 282 284 288 289 290 291 291 291
202 211 218 251 273 297 261 220 172 166 157 170 174 173 179 191 187 200 210 218 231 244 242 242 244 244 243 247 246 245 250 255 256 258 261 265 268 271 275 278 279 283 286 289 291 291 292 293 293
214 210 215 233 237 222 236 223 166 196 180 184 178 172 169 168 183 206 212 215 229 236 239 244 246 245 248 248 246 249 253 254 257 262 266 269 272 275 277 280 284 287 289 292 292 292 294 295 294
215 228 217 224 234 182 237 259 215 241 212 278 188 177 168 167 173 173 197 222 233 240 246 244 238 232 235 238 242 248 253 259 262 266 270 272 275 279 282 286 288 290 293 293 292 293 295 295 294
216 216 210 226 248 230 195 224 186 179 218 242 175 183 171 174 169 174 207 226 228 229 226 232 238 240 242 248 252 257 260 266 270 274 278 282 285 287 289 291 292 292 291 292 293 294 295 296 294
Height
3156 3159 3161 3163 3168 3162 3157 3156 3154 3152 3157 3155 3152 3156 3159 3160 3155 3159 3159 3159 3158 3161 3163 3165 3165 3165 3166 3166 3166 3165 3165 3166 3168 3169 3171 3172 3173 3175 3176 3178 3179 3181 3183 3184 3186 3186 3187 3188 3188
3152 3156 3158 3160 3162 3156 3153 3154 3152 3152 3150 3153 3153 3156 3161 3161 3153 3156 3158 3157 3159 3160 3162 3163 3164 3164 3165 3165 3166 3166 3166 3166 3167 3168 3170 3171 3173 3174 3176 3178 3180 3182 3184 3185 3186 3188 3189 3190 3190
3149 3153 3156 3156 3153 3150 3149 3148 3151 3152 3147 3151 3154 3156 3158 3157 3156 3153 3156 3155 3157 3159 3160 3161 3162 3163 3164 3165 3165 3166 3166 3167 3168 3169 3170 3171 3173 3174 3176 3178 3180 3183 3185 3186 3187 3188 3190 3191 3191
3145 3148 3151 3148 3146 3148 3148 3143 3146 3151 3150 3152 3153 3154 3157 3155 3155 3154 3157 3154 3158 3158 3159 3159 3160 3161 3162 3163 3164 3164 3165 3166 3167 3169 3171 3172 3174 3176 3178 3179 3181 3183 3185 3186 3187 3189 3190 3191 3192
3140 3144 3144 3141 3142 3144 3145 3144 3145 3147 3150 3150 3152 3152 3155 3151 3153 3155 3156 3154 3156 3158 3159 3159 3159 3159 3159 3160 3161 3162 3162 3163 3165 3167 3169 3171 3173 3175 3177 3179 3181 3183 3185 3186 3188 3189 3190 3192 3193
3136 3139 3139 3135 3138 3140 3141 3140 3142 3145 3147 3149 3150 3151 3152 3148 3150 3151 3150 3150 3152 3154 3156 3157 3157 3156 3155 3156 3157 3158 3159 3160 3161 3164 3166 3168 3171 3173 3175 3178 3180 3181 3183 3185 3187 3188 3190 3191 3192
3131 3134 3132 3134 3134 3135 3136 3139 3138 3141 3144 3146 3149 3149 3149 3147 3143 3147 3149 3146 3144 3145 3150 3154 3156 3155 3154 3154 3155 3157 3157 3157 3158 3160 3162 3164 3166 3169 3172 3175 3177 3179 3181 3183 3186 3187 3189 3190 3191
3127 3131 3130 3129 3131 3131 3132 3134 3135 3137 3138 3142 3144 3146 3149 3143 3138 3135 3144 3148 3146 3140 3145 3150 3153 3155 3154 3153 3153 3154 3156 3157 3157 3158 3160 3162 3164 3166 3169 3172 3174 3177 3179 3181 3183 3185 3187 3188 3189
3126 3125 3121 3123 3126 3129 3130 3130 3132 3130 3133 3137 3139 3143 3146 3137 3139 3137 3116 3118 3145 3142 3141 3145 3148 3150 3150 3150 3150 3150 3152 3155 3157 3158 3159 3160 3162 3164 3165 3168 3171 3173 3176 3178 3180 3182 3184 3185 3186
3118 3116 3115 3122 3124 3125 3127 3127 3128 3127 3128 3132 3134 3137 3140 3135 3134 3138 3132 3136 3141 3139 3136 3140 3143 3145 3145 3145 3146 3147 3148 3150 3153 3155 3158 3158 3159 3161 3163 3164 3167 3170 3172 3174 3176 3178 3181 3182 3183
3111 3106 3116 3117 3119 3121 3121 3119 3120 3122 3125 3128 3130 3133 3135 3134 3133 3130 3130 3134 3139 3138 3134 3131 3137 3139 3139 3139 3138 3141 3144 3148 3151 3152 3154 3155 3156 3157 3158 3161 3163 3165 3168 3170 3172 3174 3176 3178 3179
3107 3108 3111 3113 3114 3116 3114 3115 3114 3118 3122 3125 3127 3129 3132 3130 3129 3131 3135 3136 3138 3135 3129 3125 3128 3128 3129 3133 3135 3137 3140 3145 3147 3148 3150 3151 3153 3153 3154 3156 3159 3161 3163 3165 3167 3169 3170 3172 3173
3101 3105 3107 3109 3109 3109 3110 3110 3112 3113 3117 3119 3118 3120 3123 3126 3126 3127 3131 3128 3129 3127 3125 3105 3114 3128 3122 3129 3134 3134 3135 3137 3142 3144 3145 3147 3147 3150 3152 3153 3155 3158 3159 3162 3163 3164 3164 3166 3167
3100 3101 3102 3103 3104 3104 3105 3107 3108 3108 3112 3113 3114 3114 3116 3119 3121 3124 3125 3125 3123 3121 3120 3089 3078 3104 3123 3129 3132 3135 3133 3135 3137 3140 3142 3144 3146 3148 3151 3151 3152 3153 3154 3156 3158 3159 3160 3162 3163
3094 3095 3096 3096 3098 3098 3101 3098 3097 3104 3106 3106 3107 3108 3109 3110 3114 3117 3121 3119 3113 3109 3112 3107 3094 3068 3118 3132 3135 3137 3135 3134 3137 3138 3138 3145 3147 3148 3148 3148 3150 3151 3151 3154 3156 3156 3157 3158 3158
3088 3090 3087 3088 3091 3092 3097 3087 3095 3098 3098 3098 3100 3102 3102 3104 3105 3110 3115 3114 3105 3102 3106 3108 3107 3105 3115 3126 3131 3136 3131 3131 3134 3134 3138 3145 3147 3144 3147 3149 3148 3146 3146 3147 3150 3153 3152 3155 3156
3080 3079 3080 3083 3083 3086 3087 3086 3090 3092 3092 3093 3093 3095 3097 3098 3099 3103 3110 3107 3102 3102 3104 3109 3107 3115 3123 3118 3120 3116 3132 3133 3132 3136 3139 3131 3136 3138 3135 3136 3139 3139 3141 3142 3144 3146 3148 3149 3151
3072 3075 3075 3074 3075 3074 3080 3081 3085 3087 3088 3088 3089 3090 3091 3094 3093 3100 3106 3101 3099 3103 3098 3103 3107 3109 3111 3113 3117 3083 3130 3136 3132 3136 3133 3132 3122 3111 3128 3130 3134 3127 3130 3116 3120 3137 3142 3144 3144
3068 3068 3068 3069 3068 3071 3076 3079 3080 3081 3082 3083 3084 3084 3086 3087 3089 3094 3101 3098 3098 3101 3104 3104 3102 3105 3106 3110 3115 3121 3128 3129 3125 3127 3124 3108 3085 3114 3124 3137 3136 3126 3132 3131 3135 3138 3137 3138 3139
3064 3063 3061 3063 3065 3069 3071 3074 3076 3076 3077 3078 3079 3080 3081 3082 3084 3088 3093 3097 3096 3099 3100 3103 3107 3109 3111 3112 3114 3118 3119 3121 3125 3124 3131 3128 3124 3127 3136 3136 3134 3132 3133 3134 3133 3133 3132 3133 3134
3059 3059 3059 3059 3061 3065 3068 3070 3070 3070 3071 3073 3074 3075 3076 3077 3079 3083 3088 3093 3098 3095 3098 3102 3107 3108 3109 3112 3111 3113 3115 3118 3122 3124 3124 3129 3129 3132 3131 3130 3130 3129 3132 3130 3127 3126 3125 3125 3127
3052 3056 3058 3058 3061 3061 3064 3062 3059 3059 3063 3066 3069 3070 3071 3073 3076 3080 3086 3088 3093 3095 3099 3099 3104 3104 3109 3110 3110 3112 3118 3119 3115 3118 3116 3121 3122 3125 3127 3128 3129 3127 3124 3121 3118 3118 3117 3118 3117
3048 3052 3056 3057 3058 3060 3059 3060 3051 3053 3057 3060 3064 3067 3069 3071 3074 3078 3082 3083 3089 3093 3095 3097 3100 3103 3104 3106 3105 3108 3111 3110 3115 3113 3115 3119 3120 3119 3122 3118 3118 3117 3115 3113 3112 3113 3113 3113 3109
3046 3049 3052 3055 3057 3055 3057 3057 3051 3050 3052 3055 3057 3063 3067 3070 3074 3077 3077 3081 3085 3088 3090 3093 3095 3094 3097 3101 3103 3104 3101 3104 3108 3111 3112 3114 3116 3112 3112 3109 3109 3108 3107 3107 3106 3106 3105 3105 3103
3041 3045 3046 3049 3048 3046 3051 3053 3048 3047 3054 3053 3055 3059 3065 3067 3069 3073 3073 3078 3082 3084 3084 3087 3089 3091 3093 3096 3099 3102 3103 3103 3104 3108 3107 3109 3107 3105 3101 3102 3100 3100 3101 3101 3100 3099 3098 3096 3093
3033 3038 3037 3038 3040 3041 3044 3041 3042 3045 3049 3054 3055 3057 3062 3063 3067 3072 3072 3074 3078 3080 3081 3083 3086 3087 3089 3092 3093 3096 3098 3098 3099 3102 3103 3103 3102 3100 3098 3097 3097 3097 3096 3094 3092 3091 3090 3087 3084
3029 3030 3037 3035 3036 3045 3036 3040 3041 3047 3046 3051 3054 3055 3057 3061 3064 3066 3071 3072 3071 3075 3077 3080 3082 3083 3083 3085 3089 3093 3094 3096 3095 3097 3097 3096 3096 3096 3092 3092 3093 3090 3088 3086 3083 3081 3078 3074 3070
3021 3030 3034 3032 3035 3039 3034 3034 3045 3045 3046 3051 3052 3053 3054 3058 3060 3061 3065 3067 3069 3071 3073 3075 3076 3078 3081 3083 3085 3088 3090 3090 3091 3091 3093 3092 3090 3090 3088 3085 3084 3080 3079 3075 3072 3068 3064 3059 3055
3018 3021 3026 3029 3029 3032 3037 3038 3038 3044 3041 3046 3049 3050 3052 3055 3055 3058 3060 3063 3065 3068 3070 3072 3075 3077 3078 3080 3082 3084 3086 3087 3088 3088 3087 3085 3084 3082 3079 3077 3073 3069 3066 3063 3059 3055 3050 3045 3040
3013 3016 3023 3026 3026 3027 3031 3037 3038 3042 3050 3047 3043 3046 3049 3052 3054 3056 3057 3061 3063 3065 3068 3070 3072 3074 3075 3077 3078 3080 3081 3082 3082 3081 3080 3077 3075 3072 3068 3064 3060 3057 3055 3051 3046 3042 3037 3030 3026